Location: Caltech
(34.1382°N, 118.1253°W)
Time: 19:22:20
(UTC-07:00)

OAO 2 Rocket - Visible Passes

Search period start: 04 August 2015 00:00
Search period end: 14 August 2015 00:00
Orbit: 677 x 747 km, 35.0° (Epoch: 04 August)

Date Brightness Start Highest point End Pass type
(mag) Time Alt. Az. Time Alt. Az. Time Alt. Az.
04 Aug 5.6 03:06:58 15° ESE 03:06:58 15° ESE 03:07:49 10° ESE visible
04 Aug 4.1 04:46:02 26° SW 04:47:22 30° SSW 04:51:40 10° SSE visible
04 Aug 5.0 20:49:02 10° S 20:51:35 14° SSE 20:51:41 14° SE visible
05 Aug 5.0 03:52:57 21° SE 03:52:57 21° SE 03:54:42 10° SE visible
05 Aug 5.1 05:32:38 10° SW 05:34:17 11° SW 05:35:44 10° SSW visible
05 Aug 4.1 21:33:59 10° SW 21:37:38 32° S 21:37:38 32° S visible
06 Aug 5.2 04:39:10 14° S 04:39:10 14° S 04:40:15 10° S visible
06 Aug 4.4 20:37:09 10° SSW 20:41:12 25° SSE 20:44:15 14° ESE visible
06 Aug 4.6 22:20:40 10° WSW 22:23:17 31° WSW 22:23:17 31° WSW visible
07 Aug 3.4 21:23:19 10° SW 21:28:14 53° SSE 21:29:39 40° ESE visible
07 Aug 5.8 23:07:58 10° W 23:08:40 14° W 23:08:40 14° W visible
08 Aug 3.8 20:26:08 10° SW 20:30:52 39° SSE 20:35:32 10° E visible
08 Aug 3.4 22:10:26 10° WSW 22:14:47 66° WSW 22:14:47 66° WSW visible
09 Aug 3.2 21:12:57 10° WSW 21:18:02 75° SSE 21:20:43 27° E visible
09 Aug 5.3 22:57:51 10° W 22:59:43 23° W 22:59:43 23° W visible
10 Aug 3.5 20:15:33 10° WSW 20:20:36 59° SSE 20:25:34 10° E visible
10 Aug 3.2 22:00:18 10° W 22:05:23 82° N 22:05:30 81° NNE visible
11 Aug 3.3 21:02:45 10° W 21:07:53 88° NNW 21:11:11 22° E visible
11 Aug 4.9 22:47:44 10° W 22:50:10 28° W 22:50:10 28° W visible
12 Aug 3.4 20:05:13 10° WSW 20:10:24 80° SSE 20:15:29 10° E visible
12 Aug 3.2 21:50:11 10° W 21:55:18 81° N 21:55:46 72° ENE visible
13 Aug 3.4 20:52:37 10° W 20:57:47 81° N 21:01:19 20° E visible
13 Aug 4.8 22:37:35 10° W 22:40:18 32° W 22:40:18 32° W visible
